Carver, MA

8:36 AM EDT on August 26, 2016 (GMT -0400)
Plymouth Municipal

Weather History for KPYM - March, 2014

Change the Weather History Date:

Tuesday, March 18, 2014

  Actual Average Record
Temperature  
Mean Temperature 22 °F -  
Max Temperature 34 °F 45 °F 73 °F (2011)
Min Temperature 10 °F 25 °F -3 °F (1967)
Degree Days  
Heating Degree Days 44    
Moisture  
Dew Point 13 °F    
Average Humidity 63    
Maximum Humidity 81    
Minimum Humidity 46    
Precipitation  
Precipitation 0.00 in - - ()
Sea Level Pressure  
Sea Level Pressure 30.29 in    
Wind  
Wind Speed 3 mph (NE)    
Max Wind Speed 10 mph    
Max Gust Speed 17 mph    
Visibility 10 miles    
Events      
Averages and records for this station are not official NWS values.
T = Trace of Precipitation, MM = Missing Value Source: NWS Daily Summary

Daily Weather History Graph

Daily Weather History Graph

Search for Another Location

Airport or City:

Trip Planner

Search our weather history database for the weather conditions in past years. The results will help you decide how hot, cold, wet, or windy it might be!

Date:

Astronomy

Mar. 18, 2014 Rise Set
Actual Time 6:49 AM EDT 6:52 PM EDT
Civil Twilight 6:21 AM EDT 7:20 PM EDT
Nautical Twilight 5:49 AM EDT 7:53 PM EDT
Astronomical Twilight 5:16 AM EDT 8:26 PM EDT
Moon 9:09 PM EDT (3/18) 7:35 AM EDT (3/18)
Length of Visible Light 12h 58m
Length of Day
12h 03m
Waning Gibbous, 96% of the Moon is Illuminated
Mar 18
Waning Gibbous
Mar 23
Last Quarter
Mar 30
New
Apr 7
First Quarter
Apr 15
Full

Hourly Weather History & Observations

Time (EDT) Temp. Windchill Dew Point Humidity Pressure Visibility Wind Dir Wind Speed Gust Speed Precip Events Conditions
12:52 AM 12.0 °F - 7.0 °F 80% 30.17 in 10.0 mi Calm Calm - N/A   Clear
1:52 AM 10.9 °F - 6.1 °F 81% 30.18 in 10.0 mi Calm Calm - N/A   Clear
2:52 AM 10.9 °F - 6.1 °F 81% 30.20 in 10.0 mi Calm Calm - N/A   Clear
3:52 AM 15.1 °F - 8.1 °F 74% 30.20 in 10.0 mi Calm Calm - N/A   Clear
4:52 AM 15.1 °F 7.7 °F 6.1 °F 68% 30.22 in 10.0 mi NNW 4.6 mph - N/A   Clear
5:52 AM 15.1 °F - 6.1 °F 68% 30.22 in 10.0 mi Calm Calm - N/A   Clear
6:52 AM 12.0 °F - 6.1 °F 77% 30.24 in 10.0 mi Calm Calm - N/A   Clear
7:52 AM 19.9 °F 14.9 °F 10.9 °F 68% 30.26 in 10.0 mi NNW 3.5 mph - N/A   Clear
8:38 AM 24.1 °F - 14.0 °F 65% 30.28 in 10.0 mi Calm Calm - N/A   Mostly Cloudy
8:52 AM 25.0 °F - 15.1 °F 66% 30.30 in 10.0 mi Calm Calm - N/A   Mostly Cloudy
9:52 AM 30.0 °F 22.4 °F 16.0 °F 56% 30.32 in 10.0 mi NE 8.1 mph - N/A   Mostly Cloudy
10:01 AM 28.9 °F 19.8 °F 16.0 °F 58% 30.31 in 10.0 mi NE 10.4 mph - N/A   Scattered Clouds
10:52 AM 32.0 °F 23.6 °F 16.0 °F 52% 30.33 in 10.0 mi NE 10.4 mph - N/A   Clear
11:52 AM 32.0 °F 25.6 °F 15.1 °F 50% 30.32 in 10.0 mi Variable 6.9 mph 17.3 mph N/A   Clear
12:52 PM 33.1 °F 24.9 °F 15.1 °F 48% 30.32 in 10.0 mi ENE 10.4 mph 16.1 mph N/A   Clear
1:52 PM 33.1 °F 24.9 °F 14.0 °F 46% 30.31 in 10.0 mi ENE 10.4 mph - N/A   Clear
2:52 PM 33.1 °F 25.5 °F 15.1 °F 48% 30.32 in 10.0 mi NNE 9.2 mph - N/A   Clear
3:52 PM 33.1 °F 26.9 °F 16.0 °F 50% 30.32 in 10.0 mi Variable 6.9 mph - N/A   Clear
4:52 PM 32.0 °F 24.8 °F 16.0 °F 52% 30.34 in 10.0 mi NE 8.1 mph - N/A   Clear
5:52 PM 32.0 °F 25.6 °F 16.0 °F 52% 30.34 in 10.0 mi Variable 6.9 mph - N/A   Clear
6:52 PM 30.0 °F 25.2 °F 16.0 °F 56% 30.35 in 10.0 mi ENE 4.6 mph - N/A   Clear
7:52 PM 28.0 °F 22.8 °F 16.0 °F 61% 30.34 in 10.0 mi ENE 4.6 mph - N/A   Clear
8:52 PM 27.0 °F 23.0 °F 16.0 °F 63% 30.36 in 10.0 mi SE 3.5 mph - N/A   Clear
9:52 PM 24.1 °F 19.7 °F 15.1 °F 69% 30.36 in 10.0 mi ENE 3.5 mph - N/A   Clear
10:52 PM 23.0 °F - 16.0 °F 74% 30.35 in 10.0 mi Calm Calm - N/A   Clear
11:52 PM 21.9 °F - 15.1 °F 75% 30.34 in 10.0 mi Calm Calm - N/A   Clear